Weather WX

World > North America > United States > Mississippi

Southaven, Mississippi Regional Weather

Lat: 34.97N, Lon: 90W
Wx Zone: MSZ001
Warning FLW WEATHER ALERT - (More Info. Click Here) Warning
Feedback

Southaven, MS Regional Weather

Expires:201906170200;;188162
ASUS44 KJAN 170110
RWRMS 

MISSISSIPPI HOURLY WEATHER ROUNDUP
NATIONAL WEATHER SERVICE JACKSON MS
800 PM CDT SUN JUN 16 2019

NOTE: "FAIR: INDICATES FEW OR NO CLOUDS BELOW 12,000 FEET WITH NO
SIGNIFICANT WEATHER AND/OR OBSTRUCTIONS TO VISIBILITY.


MSZ001>002-007>008-010>013-018>021-025>028-034>036-170200-
NORTHWEST MISSISSIPPI
  
CITY           SKY/WX    TMP DP  RH WIND       PRES   REMARKS
BATESVILLE     FAIR      75  70  83 CALM      29.89R                  
CLARKSDALE     CLEAR     79  77  94 CALM      29.88S                  
CLEVELAND      FAIR      77  71  81 S5        29.87R                  
GREENWOOD      FAIR      78  69  73 S9        29.89S                  
GREENVILLE     FAIR      76  69  79 S14       29.84F                  
OLIVE BRANCH   MOCLDY    77  73  88 S7        29.88S                  
OXFORD         FAIR      75  70  83 S5        29.91S                  
TUNICA           N/A     77  70  78 S9        29.89S                  
WINONA         FAIR      79  71  76 S5        29.92R                  
$$


SKY/WX - Weather  TMP - Temperature  DP - Dew Point  RH - Relative Humidity
WIND - Wind Direction/Speed PRES - Barometric Pressure VSB - Visibility
WCI - Wind Chill Index E13G22 Wind - East Wind 13 mph/Gusts of 22 mph